[[{"header":{"parameterUnit":"m.s-1","parameterCategory":1,"la1":30.2991,"la2":30.254,"lo1":-89.0895,"lo2":-89.0444,"dy":0.0017,"dx":0.0017,"nx":28,"ny":28,"refTime":"2025-11-04T03:00:00:Z","depth":0,"parameterNumber":2,"parameterNumberName":"U-component_of_WINDS"},"data":[0,0,0,0,0,0,0,0,0,0,0,0,0,0,0,0,0,0,0,0,0,0,0,0,0,0,0,0,0,0,0,0,0,0,0,0,0,0,0,0,0,0,0,0,0,0,0,0,0,0,0,0,0,0,0,0,0,0,0.0715,0.0715,0,0.0708,0.0708,0.0708,0.0707,0.0708,0.0708,0.0708,0.07,0.0699,0.0699,0,0,0,0,0,0,0,0,0,0,0,0,0,0.0731,0.073,0.0715,0.0715,0.0715,0.0708,0.0708,0.0708,0.0707,0.0708,0.0708,0.0708,0.07,0.0699,0.0699,0,0,0,0,0,0,0,0,0,0,0,0,0,0.0724,0.073,0.0715,0.0714,0.0714,0.0708,0.0708,0.0707,0.0707,0.0708,0.0708,0.0708,0.07,0.0699,0.0699,0.0693,0,0,0.0698,0.0697,0,0,0,0,0,0,0,0,0.0724,0.0723,0.0715,0.0714,0.0714,0.0709,0.071,0.0703,0.0707,0.071,0.0708,0.0708,0.0703,0.0702,0.07,0.0693,0.0692,0.0698,0.0697,0.0697,0.0697,0,0,0,0,0,0,0,0.0725,0.0723,0.0712,0.0714,0.0714,0.0714,0.0714,0.0709,0.0706,0.071,0.071,0.0709,0.0702,0.0701,0.07,0.0692,0.0698,0.0697,0.0697,0.0697,0.0681,0.0681,0,0,0,0,0,0,0.0725,0.0724,0.0713,0.0712,0.072,0.0714,0.0713,0.071,0.0706,0.0705,0.0709,0.0709,0.0701,0.07,0.07,0.0693,0.0697,0.0697,0.0696,0.0681,0.0681,0.0681,0,0,0,0,0,0,0.0726,0.0724,0.0713,0.0718,0.0717,0.0714,0.071,0.071,0.0708,0.0705,0.0704,0.0707,0.0701,0.07,0.0695,0.0693,0.0696,0.0696,0.0681,0.0681,0.0681,0.0679,0,0,0,0,0,0,0.0726,0.0724,0.0722,0.0718,0.0716,0.0708,0.071,0.071,0.0707,0.0707,0.0703,0.0703,0.0701,0.0696,0.0695,0.0692,0.0696,0.0681,0.0681,0.0681,0.0679,0.0679,0.0679,0,0,0,0,0,0.0727,0.0722,0.0722,0.072,0.0713,0.0708,0.0707,0.0706,0.0707,0.0705,0.0703,0.0703,0.0693,0.0695,0.0694,0.0691,0.0681,0.0681,0.0681,0.068,0.0679,0.0679,0,0,0,0,0,0,0.0725,0.0721,0.0721,0.0715,0.0712,0.0708,0.0705,0.0705,0.0701,0.0702,0.07,0.0699,0.0694,0.0692,0.0694,0.0686,0.0688,0.0687,0.0687,0.0687,0.0686,0.0687,0.0695,0,0,0,0,0,0.0724,0.072,0.0717,0.0712,0.071,0.0708,0.0706,0.0705,0.0702,0.07,0.0698,0.0695,0.0691,0.0689,0.0685,0.0679,0.0679,0.0677,0.0677,0.0676,0.0676,0.0673,0.0672,0.068,0.068,0.068,0,0,0.0722,0.0719,0.0717,0.0711,0.0709,0.0705,0.0707,0.0702,0.07,0.07,0.0695,0.0693,0.0689,0.0684,0.0682,0.0682,0.0674,0.0676,0.0676,0.0675,0.0673,0.0672,0.0671,0.0679,0.0679,0.0679,0,0,0.0715,0.0713,0.0709,0.0706,0.0703,0.0702,0.0701,0.0697,0.0696,0.0691,0.0691,0.0688,0.0682,0.0679,0.0677,0.0672,0.0672,0.0671,0.0668,0.0666,0.0665,0.0665,0.0663,0.0662,0.067,0.067,0.067,0,0.0713,0.0707,0.0706,0.0702,0.07,0.07,0.0696,0.0694,0.0689,0.0688,0.0689,0.0682,0.0679,0.0674,0.0672,0.0671,0.067,0.0671,0.0665,0.0665,0.0664,0.0663,0.0662,0.067,0.067,0.067,0.067,0,0.0704,0.0701,0.0698,0.0694,0.0691,0.0687,0.0686,0.0683,0.0683,0.0682,0.0677,0.0675,0.0671,0.067,0.0669,0.0664,0.0665,0.0666,0.0667,0.0663,0.0662,0.0661,0.067,0.067,0.067,0.067,0,0,0.0696,0.0693,0.0691,0.069,0.0687,0.0684,0.068,0.0677,0.0675,0.0672,0.0669,0.0664,0.0665,0.0663,0.0662,0.066,0.0656,0.0661,0.0661,0.0661,0.0651,0.0651,0.065,0.0657,0.0657,0.0656,0.0652,0,0.069,0.0683,0.0683,0.0676,0.0673,0.0674,0.0671,0.0669,0.0668,0.0665,0.0664,0.0661,0.0662,0.0661,0.0659,0.0657,0.0654,0.0658,0.0654,0.0654,0.0655,0.0649,0.0648,0.0644,0.0651,0.0651,0.0651,0,0.0681,0.0679,0.0672,0.067,0.0669,0.0666,0.0663,0.0661,0.0658,0.0658,0.0656,0.0656,0.0653,0.0655,0.065,0.0652,0.0651,0.065,0.065,0.065,0.0652,0.0648,0.0642,0.0641,0.065,0.065,0.065,0,0.0676,0.0671,0.0667,0.0665,0.0663,0.0661,0.066,0.0658,0.0656,0.0654,0.0653,0.065,0.0649,0.0647,0.0646,0.0648,0.0642,0.0644,0.0641,0.0641,0.064,0.064,0.0633,0.0639,0.0639,0.0639,0.0639,0,0.0669,0.0665,0.0665,0.0662,0.0658,0.0658,0.0654,0.0653,0.0651,0.0649,0.0649,0.0647,0.0646,0.0644,0.0644,0.064,0.064,0.0639,0.0639,0.0639,0.0639,0.0638,0.0638,0.0639,0.0639,0.0639,0.0639,0,0.0662,0.0662,0.0657,0.0655,0.0655,0.0652,0.0651,0.0649,0.0648,0.0645,0.0644,0.0643,0.0641,0.064,0.0637,0.0637,0.0633,0.0633,0.0633,0.0633,0.0631,0.0631,0.0623,0.0623,0.0629,0.0629,0.0629,0,0.0657,0.0655,0.0653,0.0651,0.065,0.0648,0.0646,0.0646,0.0644,0.0642,0.064,0.0638,0.0636,0.0632,0.0631,0.0629,0.0629,0.0626,0.0629,0.0629,0.0629,0.0629,0.0629,0.0626,0.0626,0.0626,0.0626,0,0.0649,0.0649,0.0647,0.0645,0.0643,0.0641,0.064,0.0639,0.0638,0.0637,0.0634,0.0633,0.063,0.0627,0.0625,0.0625,0.0625,0.0625,0.0625,0.0624,0.0625,0.0625,0.0632,0.0625,0.0625,0.0625,0.0625,0.0625,0.0643,0.0641,0.064,0.0638,0.0637,0.0635,0.0633,0.0633,0.0631,0.0628,0.0629,0.0626,0.0625,0.0622,0.0621,0.062,0.062,0.0619,0.0619,0.0619,0.0619,0.0625,0.0619,0.0619,0.0619,0.0619,0.0619,0,0.0635,0.0635,0.0633,0.0631,0.0629,0.063,0.0629,0.0627,0.0625,0.0624,0.0622,0.062,0.0618,0.0617,0.0615,0.0614,0.0614,0.0614,0.0614,0.0614,0.0618,0.0619,0.0613,0.0613,0.0613,0.0613,0.0613,0.0613,0.0631,0.0628,0.0628,0.0624,0.0624,0.0621,0.062,0.0619,0.0619,0.0616,0.0614,0.0614,0.0613,0.0612,0.061,0.061,0.0609,0.0608,0.0608,0.0613,0.0613,0.0614,0.0614,0.0608,0.0608,0.0604,0.0604,0.0604]},{"header":{"parameterUnit":"m.s-1","parameterCategory":1,"la1":30.2991,"la2":30.254,"lo1":-89.0895,"lo2":-89.0444,"dy":0.0017,"dx":0.0017,"nx":28,"ny":28,"refTime":"2025-11-04T03:00:00:Z","depth":0,"parameterNumber":3,"parameterNumberName":"V-component_of_WINDS"},"data":[0,0,0,0,0,0,0,0,0,0,0,0,0,0,0,0,0,0,0,0,0,0,0,0,0,0,0,0,0,0,0,0,0,0,0,0,0,0,0,0,0,0,0,0,0,0,0,0,0,0,0,0,0,0,0,0,0,0,-4.5536,-4.5537,0,-4.563,-4.5631,-4.5632,-4.5646,-4.5645,-4.5644,-4.5644,-4.5734,-4.5737,-4.574,0,0,0,0,0,0,0,0,0,0,0,0,0,-4.5365,-4.5368,-4.5536,-4.5537,-4.5539,-4.563,-4.5631,-4.5633,-4.5646,-4.5645,-4.5644,-4.5643,-4.5733,-4.5736,-4.574,0,0,0,0,0,0,0,0,0,0,0,0,0,-4.5447,-4.5369,-4.5536,-4.5557,-4.5559,-4.563,-4.5631,-4.5633,-4.5646,-4.5645,-4.5644,-4.5643,-4.5731,-4.5736,-4.5741,-4.5795,0,0,-4.5755,-4.5757,0,0,0,0,0,0,0,0,-4.5442,-4.5453,-4.5552,-4.5555,-4.5559,-4.5625,-4.5604,-4.5687,-4.5647,-4.5613,-4.5644,-4.5642,-4.5698,-4.5706,-4.5726,-4.5799,-4.5803,-4.5756,-4.5759,-4.5761,-4.5762,0,0,0,0,0,0,0,-4.5436,-4.5449,-4.5573,-4.5554,-4.5558,-4.556,-4.557,-4.562,-4.5661,-4.5616,-4.5617,-4.5629,-4.57,-4.5721,-4.5728,-4.5805,-4.5755,-4.576,-4.5763,-4.5765,-4.593,-4.5931,0,0,0,0,0,0,-4.5428,-4.5444,-4.557,-4.5576,-4.5496,-4.5564,-4.5575,-4.5605,-4.5661,-4.5668,-4.5629,-4.5629,-4.5714,-4.5722,-4.5731,-4.58,-4.5761,-4.5765,-4.5768,-4.5928,-4.593,-4.5932,0,0,0,0,0,0,-4.5424,-4.5439,-4.5567,-4.5511,-4.5527,-4.5568,-4.5601,-4.5608,-4.5629,-4.5671,-4.5678,-4.5644,-4.5713,-4.5724,-4.578,-4.5804,-4.5767,-4.5771,-4.5927,-4.5929,-4.5931,-4.5938,0,0,0,0,0,0,-4.5419,-4.5437,-4.5459,-4.5511,-4.553,-4.5615,-4.5603,-4.561,-4.5638,-4.5638,-4.5687,-4.5694,-4.5713,-4.5773,-4.5785,-4.5809,-4.5775,-4.5925,-4.5928,-4.593,-4.5936,-4.594,-4.5944,0,0,0,0,0,-4.5413,-4.5456,-4.546,-4.5475,-4.5559,-4.5616,-4.5627,-4.565,-4.564,-4.5662,-4.5689,-4.5692,-4.5799,-4.5779,-4.5792,-4.5818,-4.5923,-4.5927,-4.593,-4.5934,-4.5939,-4.5944,0,0,0,0,0,0,-4.5402,-4.5463,-4.5468,-4.553,-4.5568,-4.5619,-4.5647,-4.5655,-4.5695,-4.5693,-4.5718,-4.5729,-4.5784,-4.5807,-4.5783,-4.5875,-4.586,-4.5867,-4.5858,-4.5864,-4.5868,-4.5861,-4.5779,0,0,0,0,0,-4.5408,-4.5452,-4.5501,-4.555,-4.557,-4.5605,-4.5631,-4.5646,-4.5686,-4.5702,-4.5733,-4.577,-4.5812,-4.5839,-4.588,-4.5939,-4.5951,-4.5964,-4.5968,-4.5972,-4.5977,-4.6011,-4.6018,-4.5943,-4.5943,-4.5943,0,0,-4.5418,-4.5457,-4.5482,-4.5549,-4.5581,-4.5625,-4.5619,-4.5664,-4.5697,-4.5708,-4.5763,-4.5788,-4.5831,-4.5889,-4.5916,-4.591,-4.6,-4.5976,-4.5978,-4.5982,-4.6015,-4.6022,-4.6029,-4.5946,-4.5945,-4.5945,0,0,-4.546,-4.5494,-4.5539,-4.5572,-4.5621,-4.5645,-4.5656,-4.5706,-4.5724,-4.5781,-4.579,-4.5828,-4.59,-4.5931,-4.5956,-4.6013,-4.6018,-4.6026,-4.6047,-4.608,-4.6086,-4.6091,-4.6113,-4.612,-4.6031,-4.6031,-4.6031,0,-4.5466,-4.5535,-4.5561,-4.5608,-4.5638,-4.5653,-4.5699,-4.5729,-4.5787,-4.5807,-4.5799,-4.5892,-4.5922,-4.5988,-4.6003,-4.6022,-4.6035,-4.602,-4.6083,-4.6089,-4.6094,-4.6115,-4.6123,-4.6031,-4.6031,-4.6031,-4.6031,0,-4.554,-4.5587,-4.5618,-4.5678,-4.5711,-4.5757,-4.579,-4.582,-4.5832,-4.5857,-4.5915,-4.5952,-4.6002,-4.6019,-4.603,-4.6087,-4.6082,-4.6079,-4.6064,-4.6102,-4.6122,-4.6129,-4.6033,-4.6032,-4.6032,-4.6032,0,0,-4.5576,-4.5653,-4.5664,-4.5693,-4.5749,-4.5785,-4.5832,-4.5884,-4.5909,-4.595,-4.599,-4.6052,-4.605,-4.6078,-4.6094,-4.6123,-4.6167,-4.6116,-4.6118,-4.6125,-4.6234,-4.6236,-4.6245,-4.6171,-4.6172,-4.6173,-4.623,0,-4.5625,-4.5712,-4.5739,-4.5811,-4.5855,-4.5871,-4.5912,-4.5951,-4.5976,-4.6016,-4.6042,-4.6086,-4.608,-4.6097,-4.6127,-4.6155,-4.6189,-4.6152,-4.6207,-4.6209,-4.6196,-4.6255,-4.6257,-4.6309,-4.6238,-4.6239,-4.624,0,-4.5694,-4.5739,-4.5816,-4.587,-4.5889,-4.5926,-4.5977,-4.6015,-4.6059,-4.6075,-4.6109,-4.6122,-4.6171,-4.6154,-4.6222,-4.6196,-4.622,-4.6238,-4.6241,-4.6246,-4.6227,-4.6263,-4.6326,-4.6334,-4.6253,-4.6252,-4.6251,0,-4.5713,-4.5794,-4.5851,-4.5875,-4.5938,-4.5964,-4.5991,-4.6034,-4.6064,-4.6107,-4.6127,-4.6175,-4.6201,-4.6237,-4.6262,-4.6248,-4.6329,-4.6313,-4.6343,-4.6342,-4.6358,-4.6357,-4.6427,-4.6374,-4.6373,-4.6373,-4.6373,0,-4.5765,-4.5812,-4.5861,-4.5896,-4.595,-4.598,-4.6031,-4.6058,-4.6097,-4.6138,-4.6153,-4.619,-4.6222,-4.6263,-4.6284,-4.6337,-4.6348,-4.6362,-4.6367,-4.6361,-4.6359,-4.6377,-4.6374,-4.6375,-4.6375,-4.6375,-4.6374,0,-4.5796,-4.5831,-4.5895,-4.5951,-4.5966,-4.6003,-4.605,-4.6085,-4.6111,-4.6162,-4.6175,-4.6216,-4.6265,-4.6295,-4.6356,-4.637,-4.643,-4.6433,-4.6416,-4.6418,-4.6446,-4.6443,-4.6529,-4.6543,-4.648,-4.6481,-4.6481,0,-4.5827,-4.5864,-4.5925,-4.5955,-4.5984,-4.603,-4.6062,-4.6093,-4.6125,-4.618,-4.6208,-4.6259,-4.6302,-4.638,-4.6414,-4.6461,-4.6466,-4.6493,-4.6473,-4.6466,-4.6467,-4.6465,-4.6469,-4.6496,-4.6497,-4.6497,-4.6497,0,-4.5878,-4.5895,-4.5941,-4.5994,-4.6033,-4.6075,-4.6117,-4.614,-4.6178,-4.6213,-4.6266,-4.6299,-4.6364,-4.6415,-4.6466,-4.6492,-4.6501,-4.6504,-4.6513,-4.6507,-4.6496,-4.6504,-4.6425,-4.6501,-4.6501,-4.6501,-4.65,-4.65,-4.5911,-4.5945,-4.5995,-4.6046,-4.6082,-4.6122,-4.6158,-4.6191,-4.6236,-4.6293,-4.6308,-4.6363,-4.6408,-4.6478,-4.6506,-4.6549,-4.6544,-4.6557,-4.6561,-4.6564,-4.6565,-4.649,-4.6558,-4.6558,-4.6558,-4.6558,-4.6558,0,-4.5964,-4.5997,-4.6045,-4.6105,-4.6146,-4.6154,-4.6202,-4.6235,-4.6284,-4.6326,-4.6369,-4.643,-4.648,-4.6519,-4.657,-4.6597,-4.6602,-4.6609,-4.6607,-4.6614,-4.6566,-4.6553,-4.6604,-4.6604,-4.6604,-4.6604,-4.6604,-4.6604,-4.5996,-4.6056,-4.6078,-4.6156,-4.6189,-4.6245,-4.6272,-4.6309,-4.6343,-4.6411,-4.6454,-4.648,-4.6521,-4.6576,-4.6622,-4.6632,-4.665,-4.6656,-4.6667,-4.6622,-4.6617,-4.6612,-4.66,-4.666,-4.666,-4.6712,-4.6712,-4.6712]}]]